When you browse on this site, cookies collect data to enhance your experience and personalize the content and advertising you see.
Visit our Privacy Policy to learn more. By continuing to use the site, you agree to this use of cookies and data.
  • In Germany
  • List of Countries
  • For 7 days
  • Water Temperature
  • Weather Map
  • Weather Widgets
  • user-avatar
    Login

    Hourly Weather Poldnevaya

    Today, 24 January, Friday

    Time Temperature Precipitation Wind Pressure Humidity
    00:00 -14°C° 0 mm 4 mps 710 mmHg 90%
    01:00 -14°C° 0 mm 4 mps 711 mmHg 91%
    02:00 -13°C° 0 mm 3 mps 711 mmHg 92%
    03:00 -14°C° 0 mm 3 mps 711 mmHg 92%
    04:00 -14°C° 0 mm 3 mps 712 mmHg 93%
    05:00 -15°C° 0 mm 3 mps 712 mmHg 93%
    06:00 -15°C° 0 mm 3 mps 712 mmHg 93%
    07:00 -16°C° 0 mm 3 mps 712 mmHg 93%
    08:00 -15°C° 0 mm 3 mps 713 mmHg 92%
    09:00 -16°C° 0 mm 4 mps 713 mmHg 90%
    10:00 -15°C° 0 mm 4 mps 714 mmHg 89%
    11:00 -15°C° 0 mm 4 mps 714 mmHg 88%
    12:00 -15°C° 0 mm 4 mps 714 mmHg 87%
    13:00 -14°C° 0 mm 4 mps 714 mmHg 86%
    14:00 -15°C° 0 mm 4 mps 714 mmHg 87%
    15:00 -15°C° 0 mm 4 mps 714 mmHg 88%
    16:00 -16°C° 0 mm 4 mps 714 mmHg 89%
    17:00 -17°C° 0 mm 5 mps 715 mmHg 88%
    18:00 -17°C° 0 mm 5 mps 715 mmHg 88%
    19:00 -18°C° 0 mm 5 mps 715 mmHg 88%
    20:00 -18°C° 0 mm 5 mps 715 mmHg 88%
    21:00 -19°C° 0 mm 5 mps 715 mmHg 88%
    22:00 -19°C° 0 mm 5 mps 715 mmHg 88%
    23:00 -19°C° 0 mm 5 mps 715 mmHg 88%

    Tomorrow, 25 January, Saturday

    Time Temperature Precipitation Wind Pressure Humidity
    00:00 -19°C° 0 mm 5 mps 715 mmHg 88%
    01:00 -19°C° 0 mm 5 mps 715 mmHg 88%
    02:00 -19°C° 0 mm 5 mps 715 mmHg 89%
    03:00 -20°C° 0 mm 5 mps 715 mmHg 90%
    04:00 -19°C° 0 mm 4 mps 715 mmHg 90%
    05:00 -19°C° 0 mm 4 mps 714 mmHg 91%
    06:00 -20°C° 0 mm 4 mps 714 mmHg 91%
    07:00 -20°C° 0 mm 4 mps 714 mmHg 92%
    08:00 -19°C° 0 mm 4 mps 714 mmHg 90%
    09:00 -18°C° 0 mm 4 mps 714 mmHg 89%
    10:00 -17°C° 0 mm 4 mps 713 mmHg 88%
    11:00 -16°C° 0 mm 4 mps 713 mmHg 87%
    12:00 -15°C° 0 mm 4 mps 713 mmHg 87%
    13:00 -14°C° 0 mm 4 mps 713 mmHg 86%
    14:00 -15°C° 0 mm 4 mps 712 mmHg 87%
    15:00 -14°C° 0 mm 3 mps 712 mmHg 88%
    16:00 -15°C° 0 mm 3 mps 712 mmHg 89%
    17:00 -15°C° 0 mm 3 mps 711 mmHg 89%
    18:00 -15°C° 0 mm 3 mps 711 mmHg 90%
    19:00 -15°C° 0 mm 3 mps 710 mmHg 90%
    20:00 -15°C° 0.1 mm 3 mps 710 mmHg 91%
    21:00 -14°C° 0.1 mm 3 mps 710 mmHg 92%
    22:00 -14°C° 0.1 mm 3 mps 709 mmHg 93%
    23:00 -14°C° 0.1 mm 3 mps 709 mmHg 93%

    Day after tomorrow, 26 January, Sunday

    Time Temperature Precipitation Wind Pressure Humidity
    00:00 -14°C° 0.1 mm 3 mps 709 mmHg 93%
    01:00 -13°C° 0.1 mm 2 mps 709 mmHg 94%
    02:00 -14°C° 0 mm 3 mps 709 mmHg 93%
    03:00 -13°C° 0 mm 3 mps 709 mmHg 93%
    04:00 -13°C° 0 mm 3 mps 709 mmHg 93%
    05:00 -12°C° 0 mm 2 mps 709 mmHg 93%
    06:00 -12°C° 0 mm 2 mps 708 mmHg 94%
    07:00 -12°C° 0 mm 2 mps 708 mmHg 94%
    08:00 -9°C° 0 mm 1 mps 708 mmHg 94%
    09:00 -9°C° 0 mm 1 mps 708 mmHg 94%
    10:00 -8°C° 0 mm 1 mps 707 mmHg 93%
    11:00 -9°C° 0.2 mm 2 mps 707 mmHg 93%
    12:00 -8°C° 0.2 mm 2 mps 706 mmHg 94%
    13:00 -9°C° 0.2 mm 3 mps 706 mmHg 94%
    14:00 -9°C° 0.3 mm 3 mps 706 mmHg 94%
    15:00 -9°C° 0.3 mm 3 mps 706 mmHg 94%
    16:00 -9°C° 0.3 mm 3 mps 706 mmHg 95%
    17:00 -10°C° 0.3 mm 3 mps 706 mmHg 94%
    18:00 -10°C° 0.3 mm 3 mps 706 mmHg 94%
    19:00 -11°C° 0.3 mm 4 mps 706 mmHg 94%
    20:00 -12°C° 0.1 mm 3 mps 707 mmHg 94%
    21:00 -13°C° 0.1 mm 3 mps 707 mmHg 94%
    22:00 -14°C° 0.1 mm 3 mps 708 mmHg 95%
    23:00 -16°C° 0 mm 3 mps 708 mmHg 95%

    27 January, Monday

    Time Temperature Precipitation Wind Pressure Humidity
    00:00 -17°C° 0 mm 3 mps 708 mmHg 96%
    01:00 -18°C° 0 mm 2 mps 709 mmHg 97%
    02:00 -18°C° 0 mm 2 mps 709 mmHg 96%
    03:00 -18°C° 0 mm 2 mps 710 mmHg 96%
    04:00 -21°C° 0 mm 3 mps 710 mmHg 96%
    05:00 -19°C° 0 mm 3 mps 711 mmHg 95%
    06:00 -19°C° 0 mm 3 mps 711 mmHg 94%
    07:00 -18°C° 0 mm 3 mps 712 mmHg 93%
    08:00 -18°C° 0 mm 4 mps 712 mmHg 92%
    09:00 -18°C° 0 mm 4 mps 713 mmHg 90%
    10:00 -17°C° 0 mm 4 mps 714 mmHg 89%
    11:00 -18°C° 0 mm 5 mps 714 mmHg 88%
    12:00 -18°C° 0 mm 5 mps 714 mmHg 88%
    13:00 -19°C° 0 mm 5 mps 715 mmHg 87%
    14:00 -19°C° 0 mm 5 mps 715 mmHg 87%
    15:00 -20°C° 0 mm 5 mps 716 mmHg 87%
    16:00 -21°C° 0 mm 5 mps 716 mmHg 88%
    17:00 -22°C° 0 mm 5 mps 717 mmHg 88%
    18:00 -22°C° 0 mm 5 mps 717 mmHg 89%
    19:00 -24°C° 0 mm 5 mps 718 mmHg 90%
    20:00 -24°C° 0 mm 5 mps 718 mmHg 90%
    21:00 -25°C° 0 mm 5 mps 719 mmHg 90%
    22:00 -25°C° 0 mm 5 mps 719 mmHg 90%
    23:00 -25°C° 0 mm 5 mps 720 mmHg 91%

    28 January, Tuesday

    Time Temperature Precipitation Wind Pressure Humidity
    00:00 -26°C° 0 mm 5 mps 720 mmHg 91%
    01:00 -27°C° 0 mm 5 mps 721 mmHg 91%
    02:00 -27°C° 0 mm 5 mps 721 mmHg 92%
    03:00 -28°C° 0 mm 5 mps 721 mmHg 92%
    04:00 -29°C° 0 mm 5 mps 722 mmHg 92%
    05:00 -29°C° 0 mm 5 mps 722 mmHg 92%
    06:00 -31°C° 0 mm 5 mps 723 mmHg 93%
    07:00 -31°C° 0 mm 5 mps 723 mmHg 93%
    08:00 -31°C° 0 mm 5 mps 724 mmHg 93%
    09:00 -31°C° 0 mm 5 mps 724 mmHg 93%
    10:00 -31°C° 0 mm 5 mps 725 mmHg 93%
    11:00 -29°C° 0 mm 5 mps 725 mmHg 92%
    12:00 -28°C° 0 mm 5 mps 726 mmHg 91%
    13:00 -27°C° 0 mm 5 mps 726 mmHg 90%
    14:00 -26°C° 0 mm 4 mps 726 mmHg 91%
    15:00 -27°C° 0 mm 4 mps 727 mmHg 91%
    16:00 -27°C° 0 mm 4 mps 727 mmHg 91%
    17:00 -27°C° 0 mm 3 mps 728 mmHg 92%
    18:00 -29°C° 0 mm 3 mps 728 mmHg 93%
    19:00 -30°C° 0 mm 3 mps 729 mmHg 94%
    20:00 -30°C° 0 mm 3 mps 729 mmHg 94%
    21:00 -30°C° 0 mm 3 mps 729 mmHg 94%
    22:00 -30°C° 0 mm 3 mps 730 mmHg 94%
    23:00 -28°C° 0 mm 2 mps 730 mmHg 94%

    29 January, Wednesday

    Time Temperature Precipitation Wind Pressure Humidity
    00:00 -28°C° 0 mm 2 mps 730 mmHg 94%
    01:00 -28°C° 0 mm 2 mps 731 mmHg 94%
    02:00 -28°C° 0 mm 2 mps 731 mmHg 95%
    03:00 -28°C° 0 mm 2 mps 731 mmHg 95%
    04:00 -29°C° 0 mm 2 mps 732 mmHg 95%
    05:00 -27°C° 0 mm 1 mps 732 mmHg 94%
    06:00 -27°C° 0 mm 1 mps 732 mmHg 94%
    07:00 -27°C° 0 mm 1 mps 733 mmHg 94%
    08:00 -24°C° 0 mm 1 mps 733 mmHg 92%
    09:00 -23°C° 0 mm 1 mps 734 mmHg 91%
    10:00 -21°C° 0 mm 1 mps 734 mmHg 89%
    11:00 -19°C° 0 mm 1 mps 734 mmHg 86%
    12:00 -17°C° 0 mm 1 mps 735 mmHg 82%
    13:00 -15°C° 0 mm 0 mps 735 mmHg 78%
    14:00 -16°C° 0 mm 0 mps 735 mmHg 82%
    15:00 -17°C° 0 mm 0 mps 735 mmHg 86%
    16:00 -19°C° 0 mm 0 mps 735 mmHg 90%
    17:00 -20°C° 0 mm 0 mps 735 mmHg 90%
    18:00 -20°C° 0 mm 0 mps 736 mmHg 90%
    19:00 -21°C° 0 mm 1 mps 736 mmHg 90%
    20:00 -22°C° 0 mm 1 mps 736 mmHg 90%
    21:00 -22°C° 0 mm 1 mps 736 mmHg 91%
    22:00 -22°C° 0 mm 1 mps 736 mmHg 91%
    23:00 -22°C° 0 mm 1 mps 736 mmHg 92%
    Show more